Tracking 28790 objects as of 19-Apr-2024
HD Live streaming from Space Station
objects crossing your sky now

COSMOS 839 DEB

Track COSMOS 839 DEB now!
10-day predictions


NORAD ID: 10621
Int'l Code: 1976-067AV
Perigee: 1,022.8 km
Apogee: 2,081.2 km
Inclination: 66.0 °
Period: 117.0 minutes
Semi major axis: 7922 km
RCS: 0.3133 m2 (medium)
Launch date: July 8, 1976
Source: Commonwealth of Independent States (former USSR) (CIS)
Launch site: PLESETSK MISSILE AND SPACE COMPLEX (PKMTR)

Note: This is SATELLITE DEBRIS
Your satellite tracking list
Your tracking list is empty




NASA's NSSDC Master Catalog

Two Line Element Set (TLE):
1 10621U 76067AV  24109.80924472  .00000034  00000-0  34874-3 0  9994
2 10621  66.0288  18.8684 0667916 183.9142 246.7757 12.31033205146751
Source of the keplerian elements: AFSPC